CW2224 Weather Reports


Display with metric or nautical units.
time (UTC)temp
F
wind
direction
speed
MPH
gust
MPH
rain 1hr
in
rain 24hr
in
rain mn
in
humidity
%
barometer
mb
20260505074829 56 227 4.0 7.0 0.00 0.00 0.00 83 1012.0
20260505073326 56 200 1.0 5.0 0.00 0.00 0.00 84 1011.9
20260505071828 56 166 0.0 3.0 0.00 0.00 0.00 83 1011.7
20260505070326 56 166 1.0 6.0 0.00 0.00 0.00 82 1011.4
20260505064828 57 260 3.0 9.0 0.00 0.00 0.00 82 1011.3
20260505063329 57 235 3.0 9.0 0.00 0.00 0.00 81 1011.1
20260505061831 57 222 5.0 8.0 0.00 0.00 0.00 80 1010.9
20260505060337 58 178 4.0 9.0 0.00 0.00 0.00 80 1010.8
20260505054843 58 190 3.0 8.0 0.00 0.00 0.00 79 1010.8
20260505053349 59 224 3.0 9.0 0.00 0.00 0.00 78 1010.6
20260505051827 60 223 4.0 8.0 0.00 0.00 0.00 76 1010.7
20260505050328 61 223 3.0 8.0 0.00 0.00 0.00 74 1010.5
20260505040328 66 259 3.0 10.0 0.00 0.00 0.00 66 1009.5
20260505034823 67 269 3.0 11.0 0.00 0.00 0.00 64 1009.2
20260505033325 68 254 6.0 10.0 0.00 0.00 0.00 62 1008.9
20260505031827 70 262 5.0 11.0 0.00 0.00 0.00 59 1008.8
20260505030328 72 266 6.0 11.0 0.00 0.00 0.00 56 1008.5
20260505024850 74 254 5.0 9.0 0.00 0.00 0.00 53 1008.6
20260505023330 75 260 4.0 9.0 0.00 0.00 0.00 51 1008.4
20260505021833 77 252 5.0 9.0 0.00 0.00 0.00 50 1008.4
20260505020404 79 278 2.0 7.0 0.00 0.00 0.00 49 1008.3
20260505014851 79 251 5.0 10.0 0.00 0.00 0.00 47 1008.3
20260505013328 80 266 4.0 9.0 0.00 0.00 0.00 45 1008.3
20260505011829 81 278 3.0 8.0 0.00 0.00 0.00 43 1008.3
20260505010329 81 248 5.0 10.0 0.00 0.00 0.00 42 1008.2
20260505004851 82 265 3.0 8.0 0.00 0.00 0.00 42 1008.3
20260505003351 81 256 3.0 10.0 0.00 0.00 0.00 43 1008.4
20260505001832 81 248 4.0 8.0 0.00 0.00 0.00 41 1008.5
20260505000333 80 282 4.0 7.0 0.00 0.00 0.00 40 1008.4
20260504234835 82 227 4.0 7.0 0.00 0.00 0.00 35 1008.3
20260504233341 80 300 6.0 11.0 0.00 0.00 0.00 35 1008.3
20260504231849 81 258 5.0 11.0 0.00 0.00 0.00 34 1008.4
20260504230329 81 249 4.0 8.0 0.00 0.00 0.00 35 1008.6
20260504224831 82 264 4.0 8.0 0.00 0.00 0.00 31 1008.9
20260504223332 80 212 4.0 9.0 0.00 0.00 0.00 34 1009.0
20260504221838 80 285 4.0 9.0 0.00 0.00 0.00 37 1009.0
20260504220332 80 356 3.0 8.0 0.00 0.00 0.00 35 1009.1
20260504214838 79 260 5.0 9.0 0.00 0.00 0.00 35 1009.1
20260504213325 78 264 5.0 8.0 0.00 0.00 0.00 37 1009.2
20260504211852 78 278 4.0 9.0 0.00 0.00 0.00 38 1009.4
20260504210352 77 266 5.0 8.0 0.00 0.00 0.00 39 1009.5
20260504204837 77 252 5.0 9.0 0.00 0.00 0.00 42 1009.7
20260504203344 77 250 5.0 10.0 0.00 0.00 0.00 43 1009.7
20260504201850 76 241 3.0 8.0 0.00 0.00 0.00 48 1009.6
20260504200356 76 271 3.0 9.0 0.00 0.00 0.00 43 1009.8
20260504194842 75 262 4.0 8.0 0.00 0.00 0.00 44 1009.9
20260504193330 74 254 5.0 10.0 0.00 0.00 0.00 44 1009.8
20260504191827 75 241 4.0 9.0 0.00 0.00 0.00 45 1010.0
20260504190333 73 272 3.0 10.0 0.00 0.00 0.00 49 1010.0
20260504184837 73 243 6.0 8.0 0.00 0.00 0.00 49 1010.1
20260504183322 72 276 4.0 7.0 0.00 0.00 0.00 50 1010.1
20260504181849 71 274 5.0 7.0 0.00 0.00 0.00 50 1010.1
20260504180350 71 284 3.0 6.0 0.00 0.00 0.00 51 1010.3
20260504174829 69 280 4.0 7.0 0.00 0.00 0.00 55 1010.2
20260504173331 68 266 3.0 8.0 0.00 0.00 0.00 60 1010.1
20260504171832 68 257 3.0 7.0 0.00 0.00 0.00 60 1010.0
20260504170334 66 265 2.0 7.0 0.00 0.00 0.00 61 1010.0
20260504160327 61 227 3.0 5.0 0.00 0.00 0.00 71 1009.8
20260504150339 56 75 1.0 3.0 0.00 0.00 0.00 81 1009.4
20260504140333 54 75 0.0 0.0 0.00 0.00 0.00 83 1009.0
20260504130336 54 75 0.0 0.0 0.00 0.00 0.00 81 1008.7
20260504110332 56 75 1.0 2.0 0.00 0.00 0.00 76 1008.5
20260504100326 58 75 0.0 0.0 0.00 0.00 0.00 77 1008.3
20260504081823 61 75 0.0 0.0 0.00 0.00 0.00 71 1008.2
20260504080348 61 75 0.0 3.0 0.00 0.00 0.00 70 1008.3